SKW5781 KDEN-KASE

Flight info

Callsign SKW5781
Flight time 0h 25m
Altitude 22000
Route CONNR8 CONNR DCT MMARY MMARY1
Aircraft CRJ7/M-SDFGIRWY/S

Departure

Time 2026-03-26 03:36
Airport Denver International Airport (KDEN)

Arrival

Time 2026-03-26 04:02
Airport Aspen-Pitkin County Airport (Sardy Field) (KASE)
Time Latitude Longitude Altitude Speed Heading
2026-03-26 03:12 39.85750 -104.66690 5375 ft 0 kts 360°
2026-03-26 03:24 39.85743 -104.66690 5376 ft 2 kts
2026-03-26 03:25 39.85723 -104.66691 5377 ft 3 kts
2026-03-26 03:25 39.85702 -104.66692 5379 ft 3 kts
2026-03-26 03:25 39.85695 -104.66693 5379 ft 0 kts
2026-03-26 03:27 39.85696 -104.66693 5379 ft 1 kts
2026-03-26 03:28 39.85698 -104.66692 5379 ft 1 kts 17°
2026-03-26 03:28 39.85703 -104.66689 5377 ft 1 kts 38°
2026-03-26 03:28 39.85707 -104.66675 5378 ft 5 kts 95°
2026-03-26 03:28 39.85686 -104.66588 5375 ft 13 kts 99°
2026-03-26 03:29 39.85679 -104.66467 5377 ft 13 kts 90°
2026-03-26 03:29 39.85679 -104.66358 5384 ft 11 kts 90°
2026-03-26 03:29 39.85680 -104.66274 5388 ft 6 kts 76°
2026-03-26 03:29 39.85714 -104.66238 5385 ft 7 kts 11°
2026-03-26 03:30 39.85774 -104.66233 5387 ft 10 kts
2026-03-26 03:30 39.85844 -104.66230 5386 ft 10 kts 359°
2026-03-26 03:30 39.85919 -104.66231 5386 ft 11 kts 360°
2026-03-26 03:30 39.85996 -104.66231 5383 ft 11 kts
2026-03-26 03:31 39.86083 -104.66231 5384 ft 14 kts 359°
2026-03-26 03:31 39.86188 -104.66228 5380 ft 16 kts
2026-03-26 03:31 39.86301 -104.66227 5379 ft 17 kts
2026-03-26 03:31 39.86418 -104.66227 5378 ft 17 kts
2026-03-26 03:32 39.86499 -104.66177 5378 ft 12 kts 81°
2026-03-26 03:32 39.86499 -104.66068 5378 ft 13 kts 91°
2026-03-26 03:32 39.86498 -104.65939 5373 ft 15 kts 90°
2026-03-26 03:32 39.86497 -104.65789 5370 ft 18 kts 91°
2026-03-26 03:33 39.86495 -104.65619 5369 ft 20 kts 91°
2026-03-26 03:33 39.86493 -104.65430 5366 ft 22 kts 91°
2026-03-26 03:33 39.86491 -104.65002 5357 ft 25 kts 90°
2026-03-26 03:34 39.86489 -104.64817 5352 ft 20 kts 90°
2026-03-26 03:34 39.86488 -104.64626 5349 ft 22 kts 90°
2026-03-26 03:34 39.86486 -104.64433 5345 ft 22 kts 90°
2026-03-26 03:34 39.86485 -104.64265 5346 ft 13 kts 90°
2026-03-26 03:35 39.86476 -104.64149 5345 ft 12 kts 124°
2026-03-26 03:35 39.86439 -104.64130 5343 ft 9 kts 183°
2026-03-26 03:35 39.86113 -104.64135 5347 ft 87 kts 180°
2026-03-26 03:35 39.85270 -104.64142 5384 ft 148 kts 179°
2026-03-26 03:36 39.84146 -104.64172 5935 ft 173 kts 181°
2026-03-26 03:36 39.82894 -104.64240 6652 ft 178 kts 188°
2026-03-26 03:36 39.81783 -104.64759 7485 ft 176 kts 228°
2026-03-26 03:36 39.81439 -104.66325 7864 ft 205 kts 276°
2026-03-26 03:37 39.82164 -104.68088 8142 ft 240 kts 305°
2026-03-26 03:37 39.83154 -104.69995 8687 ft 264 kts 298°
2026-03-26 03:37 39.83926 -104.72246 9531 ft 280 kts 286°
2026-03-26 03:37 39.84254 -104.74790 10510 ft 288 kts 274°
2026-03-26 03:38 39.84328 -104.77416 11583 ft 292 kts 271°
2026-03-26 03:38 39.84321 -104.80081 12660 ft 296 kts 270°
2026-03-26 03:38 39.84300 -104.82823 13440 ft 313 kts 270°
2026-03-26 03:38 39.84304 -104.85746 14017 ft 333 kts 271°
2026-03-26 03:39 39.84327 -104.88835 14576 ft 351 kts 271°
2026-03-26 03:39 39.84122 -104.92067 15141 ft 368 kts 260°
2026-03-26 03:39 39.83520 -104.95340 16053 ft 369 kts 255°
2026-03-26 03:39 39.82833 -104.98421 17522 ft 353 kts 254°
2026-03-26 03:40 39.82370 -105.00510 18015 ft 358 kts 255°
2026-03-26 03:40 39.81480 -105.04692 18690 ft 366 kts 255°
2026-03-26 03:40 39.80815 -105.07915 19174 ft 372 kts 256°
2026-03-26 03:40 39.80372 -105.10119 19507 ft 375 kts 256°
2026-03-26 03:41 39.79505 -105.14502 20166 ft 381 kts 257°
2026-03-26 03:41 39.79064 -105.16766 20506 ft 383 kts 256°
2026-03-26 03:41 39.78387 -105.20129 21011 ft 386 kts 256°
2026-03-26 03:41 39.77710 -105.23514 21529 ft 388 kts 256°
2026-03-26 03:42 39.77032 -105.26873 22026 ft 389 kts 256°
2026-03-26 03:42 39.76325 -105.30322 22475 ft 391 kts 256°
2026-03-26 03:42 39.75627 -105.33719 22728 ft 399 kts 256°
2026-03-26 03:42 39.74905 -105.37245 22857 ft 409 kts 256°
2026-03-26 03:43 39.74166 -105.40874 22889 ft 421 kts 256°
2026-03-26 03:43 39.73433 -105.44540 22890 ft 416 kts 256°
2026-03-26 03:43 39.72698 -105.48138 22860 ft 407 kts 257°
2026-03-26 03:43 39.71950 -105.51654 22906 ft 401 kts 255°
2026-03-26 03:44 39.71181 -105.55109 22908 ft 395 kts 255°
2026-03-26 03:44 39.70459 -105.58536 22884 ft 393 kts 256°
2026-03-26 03:44 39.69759 -105.61986 22906 ft 396 kts 257°
2026-03-26 03:44 39.69087 -105.65471 22931 ft 400 kts 257°
2026-03-26 03:45 39.68423 -105.68989 22943 ft 402 kts 257°
2026-03-26 03:45 39.67755 -105.72534 22952 ft 405 kts 257°
2026-03-26 03:45 39.67085 -105.76099 22943 ft 407 kts 257°
2026-03-26 03:45 39.66413 -105.79682 22982 ft 410 kts 257°
2026-03-26 03:46 39.65750 -105.83296 22977 ft 413 kts 258°
2026-03-26 03:46 39.65071 -105.86919 22973 ft 414 kts 257°
2026-03-26 03:46 39.64380 -105.90565 22979 ft 415 kts 257°
2026-03-26 03:46 39.63705 -105.94148 22983 ft 415 kts 257°
2026-03-26 03:47 39.63017 -105.97780 22970 ft 414 kts 257°
2026-03-26 03:47 39.62325 -106.01398 22972 ft 413 kts 257°
2026-03-26 03:47 39.61637 -106.05010 22989 ft 412 kts 257°
2026-03-26 03:47 39.60950 -106.08621 22977 ft 412 kts 257°
2026-03-26 03:48 39.60262 -106.12219 22969 ft 411 kts 257°
2026-03-26 03:48 39.59576 -106.15810 22952 ft 410 kts 257°
2026-03-26 03:48 39.58884 -106.19392 22941 ft 409 kts 257°
2026-03-26 03:48 39.58195 -106.22985 22788 ft 413 kts 257°
2026-03-26 03:49 39.57495 -106.26627 22596 ft 417 kts 257°
2026-03-26 03:49 39.56792 -106.30271 22409 ft 410 kts 257°
2026-03-26 03:49 39.56121 -106.33746 22295 ft 385 kts 257°
2026-03-26 03:49 39.55495 -106.36996 21912 ft 370 kts 257°
2026-03-26 03:50 39.54878 -106.40181 21470 ft 360 kts 257°
2026-03-26 03:50 39.54337 -106.43300 20987 ft 351 kts 262°
2026-03-26 03:50 39.54194 -106.46420 20480 ft 344 kts 269°
2026-03-26 03:50 39.54263 -106.49495 19998 ft 339 kts 272°
2026-03-26 03:51 39.54394 -106.52519 19546 ft 334 kts 272°
2026-03-26 03:51 39.54526 -106.55509 19121 ft 330 kts 272°
2026-03-26 03:51 39.54639 -106.58466 18760 ft 327 kts 270°
2026-03-26 03:51 39.54719 -106.61393 18378 ft 324 kts 270°
2026-03-26 03:52 39.54783 -106.64302 17871 ft 321 kts 270°
2026-03-26 03:52 39.54850 -106.67185 17403 ft 320 kts 270°
2026-03-26 03:52 39.54535 -106.70006 16867 ft 317 kts 251°
2026-03-26 03:52 39.53792 -106.72648 16451 ft 315 kts 249°
2026-03-26 03:53 39.52981 -106.75278 16028 ft 313 kts 248°
2026-03-26 03:53 39.52181 -106.77890 15545 ft 311 kts 248°
2026-03-26 03:53 39.51358 -106.80475 15119 ft 310 kts 247°
2026-03-26 03:53 39.50516 -106.83027 14748 ft 308 kts 247°
2026-03-26 03:54 39.49678 -106.85573 14349 ft 306 kts 247°
2026-03-26 03:54 39.48835 -106.88096 14188 ft 302 kts 246°
2026-03-26 03:54 39.47998 -106.90551 13998 ft 293 kts 247°
2026-03-26 03:54 39.47194 -106.92923 13926 ft 282 kts 246°
2026-03-26 03:55 39.46090 -106.94954 13846 ft 277 kts 219°
2026-03-26 03:55 39.44319 -106.95794 13857 ft 276 kts 185°
2026-03-26 03:55 39.42476 -106.95204 13841 ft 278 kts 154°
2026-03-26 03:55 39.41127 -106.93427 13813 ft 280 kts 121°
2026-03-26 03:56 39.40637 -106.91056 13824 ft 277 kts 97°
2026-03-26 03:56 39.40390 -106.88595 13847 ft 269 kts 107°
2026-03-26 03:56 39.39561 -106.86509 13615 ft 260 kts 140°
2026-03-26 03:56 39.38112 -106.85242 13450 ft 254 kts 159°
2026-03-26 03:57 39.36497 -106.84289 13474 ft 256 kts 161°
2026-03-26 03:57 39.34896 -106.83361 13392 ft 242 kts 162°
2026-03-26 03:57 39.33379 -106.82510 13148 ft 233 kts 161°
2026-03-26 03:57 39.31870 -106.81842 12691 ft 234 kts 170°
2026-03-26 03:58 39.30291 -106.81401 12373 ft 229 kts 174°
2026-03-26 03:58 39.28730 -106.81068 12133 ft 227 kts 173°
2026-03-26 03:58 39.27155 -106.80665 11658 ft 235 kts 171°
2026-03-26 03:58 39.25538 -106.80199 11436 ft 239 kts 171°
2026-03-26 03:59 39.24016 -106.79716 11273 ft 213 kts 168°
2026-03-26 03:59 39.22636 -106.79258 10950 ft 197 kts 167°
2026-03-26 03:59 39.21338 -106.78886 10545 ft 182 kts 172°
2026-03-26 03:59 39.20174 -106.78940 10314 ft 158 kts 198°
2026-03-26 04:00 39.19321 -106.79687 10032 ft 150 kts 229°
2026-03-26 04:00 39.18900 -106.80976 9849 ft 171 kts 257°
2026-03-26 04:00 39.18855 -106.82591 9667 ft 185 kts 270°
2026-03-26 04:00 39.19048 -106.84120 9285 ft 164 kts 284°
2026-03-26 04:01 39.19615 -106.85325 8595 ft 156 kts 317°
2026-03-26 04:01 39.20545 -106.86026 7985 ft 153 kts 336°
2026-03-26 04:01 39.21486 -106.86480 7821 ft 132 kts 339°
2026-03-26 04:01 39.22162 -106.86802 7764 ft 50 kts 340°
2026-03-26 04:02 39.22312 -106.86845 7751 ft 12 kts 30°
2026-03-26 04:02 39.22328 -106.86780 7751 ft 6 kts 119°
2026-03-26 04:02 39.22314 -106.86766 7752 ft 0 kts 153°
2026-03-26 04:03 39.22282 -106.86750 7754 ft 8 kts 160°
2026-03-26 04:03 39.22243 -106.86730 7757 ft 6 kts 159°
2026-03-26 04:03 39.22193 -106.86706 7762 ft 9 kts 160°
2026-03-26 04:03 39.22132 -106.86677 7767 ft 10 kts 160°
2026-03-26 04:04 39.22058 -106.86642 7771 ft 12 kts 160°
2026-03-26 04:04 39.22016 -106.86611 7774 ft 1 kts 125°
2026-03-26 04:04 39.22012 -106.86596 7777 ft 2 kts 105°
2026-03-26 04:04 39.22012 -106.86594 7777 ft 0 kts 105°
2026-03-26 04:05 39.22009 -106.86579 7781 ft 1 kts 103°
2026-03-26 04:05 39.22006 -106.86565 7783 ft 0 kts 102°